Вернуться в каталог

NOAA 16 DEB

АктивенSSO
NORAD 41492·DEBRIS·🇺🇸 United States

Запущен Sep 21, 2000 с Vandenberg Space Force Base

Loading…

Ближайшие Пролёты (ближайшие 24 часа)

TLE

УстаревшееSource: Space-Track

Эпоха: Aug 31, 2026, 13:42 UTC

1 41492U 00055LQ  26243.57145665  .00004460  00000-0  25067-2 0  9992
2 41492  98.8810 177.1860 0103322 359.5332   0.5725 14.08309859532867

Отслеживайте NOAA 16 DEB в реальном времени с AllMySat

Download on the App Store